Back to catalog

STARLINK-3940

AliveCommunicationsVLEO
NORAD 52540·PAYLOAD·🇺🇸 United States

Launched May 13, 2022 from Vandenberg Space Force Base

Loading…

Next Passes (next 24 hours)

TLE

FreshSource: CelesTrak SupGP

Epoch: Sep 15, 2026, 02:38 UTC

1 52540C 22051H   26258.11020833  .00042174  00000+0  12462-2 0  2589
2 52540  53.1586 347.2589 0001200  84.7693 354.2443 15.34364202    10

Track STARLINK-3940 in real time with AllMySat

Download on the App Store